カタログに戻る

STARLINK-35188

運用中通信SSO
NORAD 65522·PAYLOAD·🇺🇸 United States

打ち上げ Sep 6, 2025 から Cape Canaveral Space Force Station

Loading…

次のパス (今後24時間)

TLE

最新Source: CelesTrak SupGP

元期: Sep 15, 2026, 04:03 UTC

1 65522C 25200C   26258.16923611  .00019406  00000+0  60227-3 0  2588
2 65522  97.2841 324.6481 0000952  78.1363 334.0542 15.33437777    14

AllMySatでSTARLINK-35188をリアルタイム追跡

Download on the App Store